[[{"header":{"parameterUnit":"m.s-1","parameterCategory":1,"la1":30.2991,"la2":30.254,"lo1":-89.0895,"lo2":-89.0444,"dy":0.0017,"dx":0.0017,"nx":28,"ny":28,"refTime":"2025-03-12T09:00:00:Z","depth":0,"parameterNumber":2,"parameterNumberName":"U-component_of_WINDS"},"data":[0,0,0,0,0,0,0,0,0,0,0,0,0,0,0,0,0,0,0,0,0,0,0,0,0,0,0,0,0,0,0,0,0,0,0,0,0,0,0,0,0,0,0,0,0,0,0,0,0,0,0,0,0,0,0,0,0,0,-1.2002,-1.2003,0,-1.2104,-1.2105,-1.2106,-1.213,-1.2129,-1.2128,-1.2128,-1.2231,-1.2234,-1.2237,0,0,0,0,0,0,0,0,0,0,0,0,0,-1.1827,-1.183,-1.2002,-1.2003,-1.2005,-1.2104,-1.2105,-1.2107,-1.213,-1.2129,-1.2128,-1.2127,-1.223,-1.2234,-1.2238,0,0,0,0,0,0,0,0,0,0,0,0,0,-1.1914,-1.1832,-1.2002,-1.2028,-1.2032,-1.2104,-1.2105,-1.2107,-1.213,-1.2129,-1.2128,-1.2127,-1.2228,-1.2233,-1.2238,-1.2291,0,0,-1.2254,-1.2256,0,0,0,0,0,0,0,0,-1.1909,-1.192,-1.2023,-1.2027,-1.2031,-1.2103,-1.2081,-1.2169,-1.213,-1.2093,-1.2128,-1.2127,-1.2189,-1.2197,-1.2219,-1.2296,-1.23,-1.2254,-1.2257,-1.2259,-1.2261,0,0,0,0,0,0,0,-1.1903,-1.1916,-1.2042,-1.2025,-1.2029,-1.2035,-1.2046,-1.2098,-1.2145,-1.2096,-1.2098,-1.211,-1.2191,-1.2214,-1.2221,-1.2301,-1.2254,-1.2259,-1.2262,-1.2264,-1.2427,-1.2428,0,0,0,0,0,0,-1.1892,-1.1911,-1.2039,-1.2046,-1.1966,-1.2039,-1.2051,-1.2081,-1.2145,-1.2154,-1.211,-1.211,-1.2205,-1.2215,-1.2225,-1.2291,-1.2259,-1.2264,-1.2267,-1.2425,-1.2427,-1.2428,0,0,0,0,0,0,-1.1888,-1.1903,-1.2035,-1.1979,-1.1996,-1.2043,-1.2076,-1.2083,-1.2106,-1.2156,-1.2164,-1.2125,-1.2205,-1.2218,-1.2274,-1.2294,-1.2267,-1.2271,-1.2424,-1.2426,-1.2428,-1.2422,0,0,0,0,0,0,-1.1883,-1.1902,-1.1922,-1.1979,-1.1999,-1.2083,-1.2077,-1.2086,-1.2115,-1.2116,-1.2172,-1.218,-1.2205,-1.2267,-1.2279,-1.2301,-1.2275,-1.2422,-1.2425,-1.2427,-1.2421,-1.2424,-1.2426,0,0,0,0,0,-1.1877,-1.1916,-1.1923,-1.1939,-1.2025,-1.2084,-1.2095,-1.2124,-1.2117,-1.2138,-1.217,-1.2178,-1.229,-1.2272,-1.2287,-1.231,-1.2421,-1.2424,-1.2427,-1.2419,-1.2423,-1.2426,0,0,0,0,0,0,-1.186,-1.1924,-1.1933,-1.1992,-1.2032,-1.2088,-1.2115,-1.2127,-1.217,-1.2169,-1.2202,-1.2214,-1.2268,-1.2295,-1.2274,-1.2364,-1.2356,-1.2361,-1.2345,-1.2349,-1.2351,-1.2343,-1.2279,0,0,0,0,0,-1.1864,-1.1906,-1.196,-1.2007,-1.2027,-1.2067,-1.2094,-1.2113,-1.2156,-1.2173,-1.2209,-1.225,-1.2295,-1.2323,-1.2367,-1.2425,-1.2437,-1.2448,-1.2451,-1.2453,-1.2457,-1.249,-1.2495,-1.2438,-1.2438,-1.2438,0,0,-1.1871,-1.1911,-1.1936,-1.2005,-1.2038,-1.2081,-1.2082,-1.2127,-1.2159,-1.218,-1.2235,-1.2263,-1.2312,-1.2369,-1.2396,-1.2393,-1.2476,-1.2457,-1.2458,-1.2461,-1.2493,-1.2499,-1.2504,-1.244,-1.2439,-1.2439,0,0,-1.1906,-1.1941,-1.1984,-1.2018,-1.2069,-1.2096,-1.2106,-1.216,-1.218,-1.2236,-1.2253,-1.2291,-1.2367,-1.2401,-1.2428,-1.2477,-1.2486,-1.249,-1.2504,-1.2535,-1.254,-1.2544,-1.2561,-1.2566,-1.2495,-1.2495,-1.2495,0,-1.1908,-1.1974,-1.2004,-1.2049,-1.2079,-1.21,-1.2144,-1.2175,-1.2238,-1.2258,-1.2253,-1.235,-1.2384,-1.2449,-1.2461,-1.2482,-1.2495,-1.2483,-1.2537,-1.2541,-1.2545,-1.2562,-1.2568,-1.2495,-1.2495,-1.2495,-1.2495,0,-1.1974,-1.2019,-1.2048,-1.2108,-1.2141,-1.2185,-1.2222,-1.2252,-1.2268,-1.2295,-1.2353,-1.2394,-1.2447,-1.2464,-1.248,-1.2532,-1.2528,-1.253,-1.2522,-1.255,-1.2566,-1.2573,-1.2495,-1.2495,-1.2495,-1.2495,0,0,-1.2,-1.2078,-1.2087,-1.2115,-1.2174,-1.2209,-1.2255,-1.2307,-1.2331,-1.2374,-1.2412,-1.2477,-1.2479,-1.251,-1.2529,-1.2557,-1.2592,-1.2555,-1.2557,-1.256,-1.2652,-1.265,-1.2657,-1.2599,-1.2601,-1.2602,-1.2648,0,-1.2042,-1.2123,-1.2152,-1.2219,-1.2262,-1.2283,-1.2322,-1.2362,-1.2389,-1.2429,-1.2458,-1.2503,-1.2503,-1.2522,-1.255,-1.2582,-1.2611,-1.2579,-1.2635,-1.2636,-1.2621,-1.2665,-1.2663,-1.2704,-1.2654,-1.2655,-1.2656,0,-1.2101,-1.2145,-1.2216,-1.227,-1.2289,-1.2324,-1.2374,-1.2412,-1.2457,-1.2475,-1.251,-1.2528,-1.2576,-1.2565,-1.2631,-1.2609,-1.2633,-1.2653,-1.2655,-1.266,-1.2647,-1.2671,-1.2718,-1.2724,-1.2667,-1.2666,-1.2665,0,-1.2112,-1.2189,-1.2242,-1.2266,-1.2329,-1.2353,-1.2381,-1.2426,-1.2456,-1.2499,-1.2519,-1.2567,-1.2594,-1.2631,-1.2661,-1.2651,-1.2725,-1.2717,-1.274,-1.2739,-1.2754,-1.2752,-1.2805,-1.2771,-1.2771,-1.2771,-1.2771,0,-1.2155,-1.2198,-1.2248,-1.228,-1.2329,-1.2362,-1.2409,-1.2438,-1.2478,-1.2516,-1.2538,-1.2573,-1.2612,-1.2652,-1.2676,-1.2727,-1.2739,-1.2754,-1.276,-1.2752,-1.275,-1.2768,-1.2765,-1.2772,-1.2772,-1.2772,-1.2771,0,-1.2175,-1.2211,-1.227,-1.2326,-1.2341,-1.2374,-1.2422,-1.2454,-1.2483,-1.2531,-1.2544,-1.2588,-1.2637,-1.2671,-1.2733,-1.275,-1.2804,-1.281,-1.2789,-1.2791,-1.2813,-1.281,-1.2878,-1.2888,-1.2848,-1.2848,-1.2848,0,-1.22,-1.2234,-1.2293,-1.2321,-1.2349,-1.2392,-1.2423,-1.2457,-1.2488,-1.2543,-1.2568,-1.2618,-1.266,-1.2737,-1.2774,-1.2822,-1.2829,-1.2849,-1.2836,-1.2827,-1.2828,-1.2825,-1.2829,-1.2851,-1.2851,-1.2851,-1.2851,0,-1.224,-1.2256,-1.2299,-1.2349,-1.2385,-1.2425,-1.2466,-1.2487,-1.2529,-1.2562,-1.2612,-1.2645,-1.2709,-1.2758,-1.281,-1.2838,-1.2851,-1.2856,-1.2863,-1.2855,-1.2841,-1.2848,-1.2793,-1.2854,-1.2853,-1.2853,-1.2853,-1.2853,-1.2263,-1.2294,-1.2341,-1.2388,-1.2423,-1.2461,-1.2494,-1.2526,-1.2569,-1.2624,-1.2642,-1.2694,-1.2739,-1.281,-1.2839,-1.2879,-1.2878,-1.289,-1.2893,-1.2895,-1.2894,-1.2835,-1.2889,-1.2889,-1.2889,-1.2889,-1.2889,0,-1.2303,-1.2335,-1.2378,-1.2435,-1.2473,-1.2483,-1.2529,-1.2559,-1.2605,-1.2646,-1.2687,-1.2745,-1.2793,-1.2835,-1.2884,-1.2909,-1.2916,-1.2921,-1.2919,-1.2925,-1.2892,-1.288,-1.2914,-1.2914,-1.2914,-1.2914,-1.2914,-1.2914,-1.2329,-1.2381,-1.2403,-1.2473,-1.2504,-1.2556,-1.2581,-1.2616,-1.2649,-1.2713,-1.2753,-1.278,-1.2822,-1.2875,-1.2919,-1.293,-1.2947,-1.295,-1.2962,-1.293,-1.2927,-1.2925,-1.2913,-1.2953,-1.2953,-1.2991,-1.2992,-1.2992]},{"header":{"parameterUnit":"m.s-1","parameterCategory":1,"la1":30.2991,"la2":30.254,"lo1":-89.0895,"lo2":-89.0444,"dy":0.0017,"dx":0.0017,"nx":28,"ny":28,"refTime":"2025-03-12T09:00:00:Z","depth":0,"parameterNumber":3,"parameterNumberName":"V-component_of_WINDS"},"data":[0,0,0,0,0,0,0,0,0,0,0,0,0,0,0,0,0,0,0,0,0,0,0,0,0,0,0,0,0,0,0,0,0,0,0,0,0,0,0,0,0,0,0,0,0,0,0,0,0,0,0,0,0,0,0,0,0,0,2.1671,2.1671,0,2.1619,2.1619,2.1618,2.1588,2.1588,2.1588,2.1588,2.1531,2.1529,2.1528,0,0,0,0,0,0,0,0,0,0,0,0,0,2.174,2.1739,2.1671,2.1671,2.167,2.1619,2.1619,2.1618,2.1588,2.1588,2.1588,2.1588,2.1531,2.1529,2.1528,0,0,0,0,0,0,0,0,0,0,0,0,0,2.1702,2.1739,2.1671,2.1649,2.1647,2.1619,2.1619,2.1618,2.1588,2.1588,2.1588,2.1588,2.1532,2.1529,2.1527,2.1517,0,0,2.1521,2.152,0,0,0,0,0,0,0,0,2.1704,2.1699,2.1653,2.1651,2.1648,2.161,2.1622,2.1584,2.1588,2.161,2.1588,2.1588,2.1557,2.1553,2.1543,2.1514,2.1512,2.1521,2.1519,2.1518,2.1518,0,0,0,0,0,0,0,2.1706,2.1701,2.165,2.1652,2.1649,2.164,2.1635,2.1615,2.1585,2.1608,2.1606,2.16,2.1555,2.1545,2.1542,2.1511,2.1521,2.1519,2.1517,2.1517,2.1471,2.1471,0,0,0,0,0,0,2.1713,2.1704,2.1652,2.1649,2.1676,2.1639,2.1633,2.1622,2.1585,2.1579,2.1601,2.1599,2.1549,2.1544,2.1539,2.1525,2.1518,2.1516,2.1515,2.1471,2.1471,2.1471,0,0,0,0,0,0,2.1715,2.1709,2.1654,2.1676,2.1668,2.1638,2.1627,2.1621,2.1611,2.1579,2.1573,2.1596,2.1549,2.1542,2.1523,2.1522,2.1515,2.1513,2.147,2.1471,2.1471,2.1496,0,0,0,0,0,0,2.1717,2.171,2.1707,2.1676,2.1667,2.164,2.1626,2.162,2.1608,2.1606,2.1574,2.1568,2.1548,2.1526,2.1521,2.1519,2.1512,2.147,2.147,2.1471,2.1495,2.1497,2.1498,0,0,0,0,0,2.172,2.1715,2.1707,2.1701,2.1663,2.164,2.1635,2.1613,2.1608,2.1604,2.1583,2.1569,2.1523,2.1525,2.1518,2.1516,2.147,2.147,2.1471,2.1494,2.1496,2.1498,0,0,0,0,0,0,2.1745,2.1711,2.1701,2.1687,2.1667,2.1635,2.163,2.1617,2.1597,2.1595,2.1568,2.1561,2.1544,2.1528,2.153,2.1504,2.1495,2.1494,2.1515,2.1517,2.1519,2.1523,2.151,0,0,0,0,0,2.175,2.1736,2.1705,2.1695,2.1686,2.166,2.1649,2.1634,2.1612,2.1603,2.1581,2.1559,2.1539,2.1527,2.1507,2.1492,2.1484,2.1487,2.1489,2.149,2.149,2.148,2.1481,2.1471,2.1471,2.1471,0,0,2.1758,2.1737,2.173,2.17,2.1683,2.1668,2.1653,2.1637,2.1626,2.16,2.1581,2.1564,2.1537,2.152,2.1511,2.1506,2.1491,2.1491,2.1492,2.1491,2.148,2.1481,2.1482,2.1471,2.1471,2.1471,0,0,2.1765,2.1748,2.1738,2.1722,2.1696,2.1679,2.1676,2.1647,2.1635,2.1615,2.1596,2.158,2.1548,2.1529,2.1516,2.1516,2.1501,2.151,2.1519,2.151,2.151,2.1511,2.1511,2.1511,2.1509,2.1509,2.1509,0,2.1778,2.1756,2.1734,2.172,2.1707,2.1685,2.1674,2.1658,2.1627,2.1618,2.1613,2.1571,2.1552,2.153,2.153,2.1519,2.1515,2.1514,2.1512,2.1513,2.1513,2.1512,2.1512,2.1511,2.151,2.151,2.151,0,2.1773,2.1758,2.1753,2.1725,2.1711,2.1699,2.1674,2.1662,2.1648,2.1631,2.161,2.1586,2.1561,2.1555,2.154,2.153,2.1528,2.1518,2.1509,2.1515,2.1514,2.1514,2.1512,2.1512,2.1511,2.1511,0,0,2.1796,2.1756,2.1755,2.1742,2.1712,2.1699,2.1685,2.1661,2.1652,2.1631,2.1618,2.159,2.1581,2.1566,2.1549,2.1541,2.1542,2.1531,2.153,2.1534,2.1528,2.1537,2.1537,2.1532,2.1532,2.1532,2.1531,0,2.1799,2.1774,2.1754,2.1736,2.1721,2.1699,2.1687,2.1666,2.1649,2.1633,2.1613,2.1595,2.1584,2.1574,2.1565,2.1544,2.154,2.1543,2.1518,2.1518,2.1526,2.1536,2.1545,2.1545,2.153,2.153,2.153,0,2.18,2.1781,2.1762,2.1734,2.1727,2.1716,2.1693,2.1678,2.1654,2.1642,2.1625,2.1607,2.159,2.1582,2.1557,2.156,2.1548,2.1536,2.1535,2.1532,2.1525,2.1534,2.1545,2.1545,2.1529,2.1529,2.1529,0,2.1818,2.1788,2.1773,2.1763,2.1729,2.1722,2.1707,2.1683,2.167,2.1649,2.164,2.1617,2.1604,2.1586,2.1562,2.1559,2.154,2.153,2.1528,2.1529,2.1526,2.1526,2.1535,2.1518,2.1518,2.1518,2.1518,0,2.1824,2.1814,2.1781,2.1772,2.1759,2.1735,2.1722,2.1705,2.1683,2.1669,2.1648,2.1635,2.1604,2.1587,2.1568,2.155,2.1544,2.1533,2.1529,2.1536,2.1537,2.1528,2.1527,2.1518,2.1518,2.1518,2.1518,0,2.1843,2.1821,2.1803,2.1773,2.1765,2.1757,2.173,2.1719,2.1701,2.1683,2.1678,2.1648,2.1627,2.1602,2.1571,2.1559,2.1542,2.1535,2.1551,2.1548,2.1548,2.1549,2.1552,2.1551,2.1534,2.1534,2.1534,0,2.1849,2.184,2.1809,2.1799,2.1785,2.1769,2.1756,2.1731,2.1718,2.169,2.1682,2.166,2.164,2.1607,2.1582,2.1559,2.1551,2.1553,2.1547,2.1554,2.1551,2.1552,2.1551,2.1555,2.1555,2.1556,2.1556,0,2.1861,2.185,2.1834,2.1813,2.1798,2.178,2.1761,2.1753,2.1724,2.171,2.1689,2.1674,2.1644,2.1621,2.1595,2.1578,2.1562,2.1558,2.1556,2.1564,2.1574,2.1568,2.1556,2.1558,2.1558,2.1558,2.1558,2.1558,2.1873,2.1865,2.1842,2.1823,2.1806,2.1789,2.1777,2.1758,2.174,2.1715,2.17,2.1679,2.1654,2.1617,2.1601,2.1583,2.1577,2.1575,2.1574,2.1574,2.1576,2.1576,2.1578,2.1578,2.1577,2.1577,2.1577,0,2.1885,2.1869,2.1852,2.1826,2.1812,2.1799,2.1777,2.1765,2.1747,2.1725,2.1707,2.1682,2.166,2.1633,2.1609,2.16,2.1592,2.1594,2.1595,2.1591,2.1583,2.1587,2.1601,2.1601,2.1601,2.1601,2.1601,2.1601,2.1889,2.1874,2.186,2.1836,2.1819,2.18,2.1788,2.1771,2.1754,2.1727,2.1709,2.1693,2.1668,2.1642,2.1621,2.1613,2.1605,2.161,2.1601,2.1593,2.1591,2.1589,2.1593,2.1609,2.1609,2.161,2.161,2.161]}]]